Location: Csohesd
(46.2500°N, 22.6167°E)
Time: 13:39:35
(UTC+00:00)

Cosmos 839 Rocket - Pass Details

Date: 21 October 2021
Orbit: 964 x 2088 km, 65.9° (Epoch: 06 December)

Event Time Altitude Azimuth Distance (km) Brightness Sun altitude
Rises 17:02:48 0° 324° (NW) 4,497 8.0 -16.3°
Reaches altitude 10° 17:05:59 10° 327° (NNW) 3,357 7.3 -16.8°
Maximum altitude 17:13:48 73° 52° (NE) 1,167 4.2 -18.2°
Enters shadow 17:18:24 21° 134° (SE) 2,138 5.4 -19.0°
